| time (UTC) | temp C | wind direction | speed KPH | gust KPH | rain 1hr cm | rain 24hr cm | rain mn cm | humidity % | barometer mb |
| 20260831021803 | 23 | 182 | 3.2 | 11.3 | 0.00 | 0.00 | 0.00 | 92 | 1008.0 |
| 20260831020804 | 23 | 157 | 3.2 | 9.7 | 0.00 | 0.00 | 0.00 | 92 | 1007.9 |
| 20260831020303 | 23 | 180 | 1.6 | 4.8 | 0.00 | 0.00 | 0.00 | 92 | 1007.9 |
| 20260831015804 | 23 | 144 | 3.2 | 11.3 | 0.00 | 0.00 | 0.00 | 87 | 1007.9 |
| 20260831015306 | 23 | 157 | 1.6 | 9.7 | 0.00 | 0.00 | 0.00 | 87 | 1007.8 |
| 20260831013803 | 23 | 152 | 1.6 | 8.0 | 0.00 | 0.00 | 0.00 | 87 | 1007.8 |
| 20260831013304 | 23 | 142 | 1.6 | 4.8 | 0.00 | 0.00 | 0.00 | 87 | 1007.8 |
| 20260831012803 | 23 | 167 | 3.2 | 4.8 | 0.00 | 0.00 | 0.00 | 87 | 1007.5 |
| 20260831012306 | 24 | 171 | 1.6 | 9.7 | 0.00 | 0.00 | 0.00 | 87 | 1007.4 |
| 20260831011803 | 24 | 155 | 3.2 | 11.3 | 0.00 | 0.00 | 0.00 | 87 | 1007.3 |
| 20260831010804 | 24 | 187 | 1.6 | 9.7 | 0.00 | 0.00 | 0.00 | 87 | 1007.3 |
| 20260831005803 | 25 | 149 | 3.2 | 11.3 | 0.00 | 0.00 | 0.00 | 82 | 1007.2 |
| 20260831005306 | 25 | 157 | 3.2 | 19.3 | 0.00 | 0.00 | 0.00 | 82 | 1007.1 |
| 20260831004803 | 25 | 171 | 6.4 | 19.3 | 0.00 | 0.00 | 0.00 | 82 | 1007.0 |
| 20260831004304 | 25 | 154 | 3.2 | 11.3 | 0.00 | 0.00 | 0.00 | 82 | 1007.0 |
| 20260831003803 | 25 | 160 | 4.8 | 19.3 | 0.00 | 0.00 | 0.00 | 82 | 1007.1 |
| 20260831003304 | 25 | 178 | 11.3 | 20.9 | 0.00 | 0.00 | 0.00 | 82 | 1007.2 |
| 20260831002306 | 25 | 169 | 6.4 | 20.9 | 0.00 | 0.00 | 0.00 | 82 | 1007.3 |
| 20260831001803 | 25 | 184 | 9.7 | 19.3 | 0.00 | 0.00 | 0.00 | 82 | 1007.2 |
| 20260831001305 | 26 | 167 | 3.2 | 16.1 | 0.00 | 0.00 | 0.00 | 82 | 1007.2 |
| 20260831000804 | 26 | 172 | 4.8 | 14.5 | 0.00 | 0.00 | 0.00 | 82 | 1007.2 |
| 20260831000304 | 26 | 161 | 4.8 | 12.9 | 0.00 | 0.00 | 0.00 | 82 | 1007.3 |
| 20260830235804 | 26 | 166 | 4.8 | 19.3 | 0.00 | 0.00 | 0.00 | 73 | 1007.3 |
| 20260830235305 | 26 | 166 | 8.0 | 19.3 | 0.00 | 0.00 | 0.00 | 73 | 1007.3 |
| 20260830234803 | 26 | 168 | 6.4 | 19.3 | 0.00 | 0.00 | 0.00 | 73 | 1007.3 |
| 20260830234304 | 26 | 179 | 8.0 | 19.3 | 0.00 | 0.00 | 0.00 | 73 | 1007.2 |
| 20260830233803 | 26 | 163 | 1.6 | 3.2 | 0.00 | 0.00 | 0.00 | 73 | 1007.2 |
| 20260830232803 | 27 | 191 | 1.6 | 9.7 | 0.00 | 0.00 | 0.00 | 73 | 1007.1 |
| 20260830231804 | 27 | 178 | 3.2 | 9.7 | 0.00 | 0.00 | 0.00 | 73 | 1007.1 |
| 20260830231304 | 27 | 166 | 3.2 | 19.3 | 0.00 | 0.00 | 0.00 | 73 | 1007.1 |
| 20260830230803 | 27 | 146 | 4.8 | 12.9 | 0.00 | 0.00 | 0.00 | 73 | 1007.1 |
| 20260830230303 | 27 | 185 | 3.2 | 4.8 | 0.00 | 0.00 | 0.00 | 73 | 1007.0 |
| 20260830225306 | 28 | 161 | 1.6 | 14.5 | 0.00 | 0.00 | 0.00 | 69 | 1007.0 |
| 20260830224804 | 28 | 174 | 3.2 | 16.1 | 0.00 | 0.00 | 0.00 | 69 | 1006.8 |
| 20260830224304 | 28 | 148 | 3.2 | 16.1 | 0.00 | 0.00 | 0.00 | 69 | 1006.7 |
| 20260830223304 | 28 | 192 | 1.6 | 11.3 | 0.00 | 0.00 | 0.00 | 69 | 1006.7 |
| 20260830222803 | 28 | 175 | 4.8 | 16.1 | 0.00 | 0.00 | 0.00 | 69 | 1006.6 |
| 20260830222306 | 28 | 188 | 3.2 | 16.1 | 0.00 | 0.00 | 0.00 | 69 | 1006.6 |
| 20260830221803 | 28 | 151 | 9.7 | 19.3 | 0.00 | 0.00 | 0.00 | 69 | 1006.7 |
| 20260830221304 | 28 | 154 | 3.2 | 16.1 | 0.00 | 0.00 | 0.00 | 69 | 1006.8 |
| 20260830220304 | 29 | 144 | 1.6 | 19.3 | 0.00 | 0.00 | 0.00 | 69 | 1006.6 |
| 20260830215803 | 28 | 165 | 4.8 | 19.3 | 0.00 | 0.00 | 0.00 | 74 | 1006.5 |
| 20260830215305 | 28 | 176 | 3.2 | 12.9 | 0.00 | 0.00 | 0.00 | 74 | 1006.7 |
| 20260830214804 | 28 | 175 | 8.0 | 16.1 | 0.00 | 0.00 | 0.00 | 74 | 1006.7 |
| 20260830214303 | 28 | 161 | 4.8 | 14.5 | 0.00 | 0.00 | 0.00 | 74 | 1006.6 |
| 20260830213803 | 29 | 200 | 4.8 | 16.1 | 0.00 | 0.00 | 0.00 | 74 | 1006.5 |
| 20260830213304 | 29 | 180 | 9.7 | 19.3 | 0.00 | 0.00 | 0.00 | 74 | 1006.5 |
| 20260830212306 | 29 | 237 | 4.8 | 19.3 | 0.00 | 0.00 | 0.00 | 74 | 1006.3 |
| 20260830211304 | 30 | 154 | 4.8 | 19.3 | 0.00 | 0.00 | 0.00 | 74 | 1006.4 |
| 20260830210803 | 30 | 146 | 11.3 | 22.5 | 0.00 | 0.00 | 0.00 | 74 | 1006.4 |
| 20260830210303 | 30 | 180 | 3.2 | 14.5 | 0.00 | 0.00 | 0.00 | 74 | 1006.4 |
| 20260830205804 | 30 | 152 | 4.8 | 16.1 | 0.00 | 0.00 | 0.00 | 71 | 1006.4 |
| 20260830205305 | 30 | 151 | 4.8 | 16.1 | 0.00 | 0.00 | 0.00 | 71 | 1006.4 |
| 20260830204803 | 30 | 199 | 3.2 | 14.5 | 0.00 | 0.00 | 0.00 | 71 | 1006.4 |
| 20260830204304 | 30 | 169 | 9.7 | 22.5 | 0.00 | 0.00 | 0.00 | 71 | 1006.4 |
| 20260830203803 | 30 | 170 | 4.8 | 19.3 | 0.00 | 0.00 | 0.00 | 71 | 1006.4 |
| 20260830203304 | 30 | 170 | 4.8 | 19.3 | 0.00 | 0.00 | 0.00 | 71 | 1006.4 |
| 20260830202804 | 30 | 121 | 3.2 | 19.3 | 0.00 | 0.00 | 0.00 | 71 | 1006.5 |
| 20260830202305 | 30 | 174 | 4.8 | 19.3 | 0.00 | 0.00 | 0.00 | 71 | 1006.5 |
| 20260830201303 | 30 | 168 | 4.8 | 14.5 | 0.00 | 0.00 | 0.00 | 71 | 1006.7 |
| 20260830200803 | 30 | 156 | 8.0 | 19.3 | 0.00 | 0.00 | 0.00 | 71 | 1006.7 |
| 20260830200303 | 30 | 156 | 4.8 | 16.1 | 0.00 | 0.00 | 0.00 | 71 | 1006.7 |
| 20260830194304 | 29 | 161 | 6.4 | 16.1 | 0.00 | 0.00 | 0.00 | 76 | 1006.6 |
| 20260830193803 | 30 | 139 | 8.0 | 19.3 | 0.00 | 0.00 | 0.00 | 76 | 1006.7 |
| 20260830193304 | 30 | 156 | 9.7 | 16.1 | 0.00 | 0.00 | 0.00 | 76 | 1006.8 |
| 20260830192804 | 30 | 109 | 4.8 | 14.5 | 0.00 | 0.00 | 0.00 | 76 | 1006.8 |
| 20260830191804 | 30 | 96 | 4.8 | 22.5 | 0.00 | 0.00 | 0.00 | 76 | 1006.8 |
| 20260830191304 | 30 | 143 | 9.7 | 22.5 | 0.00 | 0.00 | 0.00 | 76 | 1006.7 |
| 20260830190305 | 30 | 147 | 9.7 | 16.1 | 0.00 | 0.00 | 0.00 | 76 | 1006.7 |
| 20260830185805 | 30 | 134 | 3.2 | 16.1 | 0.00 | 0.00 | 0.00 | 72 | 1006.7 |
| 20260830185306 | 30 | 131 | 4.8 | 14.5 | 0.00 | 0.00 | 0.00 | 72 | 1006.7 |
| 20260830184804 | 29 | 76 | 8.0 | 14.5 | 0.00 | 0.00 | 0.00 | 72 | 1006.6 |
| 20260830184304 | 29 | 113 | 8.0 | 16.1 | 0.00 | 0.00 | 0.00 | 72 | 1006.7 |
| 20260830183803 | 29 | 75 | 9.7 | 16.1 | 0.00 | 0.00 | 0.00 | 72 | 1006.5 |
| 20260830183305 | 29 | 94 | 3.2 | 14.5 | 0.00 | 0.00 | 0.00 | 72 | 1006.5 |
| 20260830182804 | 29 | 86 | 4.8 | 16.1 | 0.00 | 0.00 | 0.00 | 72 | 1006.7 |
| 20260830182306 | 28 | 68 | 3.2 | 11.3 | 0.00 | 0.00 | 0.00 | 72 | 1006.7 |
| 20260830181804 | 28 | 59 | 4.8 | 12.9 | 0.00 | 0.00 | 0.00 | 72 | 1006.8 |
| 20260830181304 | 28 | 114 | 6.4 | 16.1 | 0.00 | 0.00 | 0.00 | 72 | 1006.8 |
| 20260830180804 | 28 | 110 | 3.2 | 12.9 | 0.00 | 0.00 | 0.00 | 72 | 1006.9 |
| 20260830180304 | 28 | 127 | 3.2 | 14.5 | 0.00 | 0.00 | 0.00 | 74 | 1007.0 |
| 20260830175804 | 28 | 154 | 1.6 | 9.7 | 0.00 | 0.00 | 0.00 | 82 | 1007.0 |
| 20260830175306 | 28 | 128 | 1.6 | 11.3 | 0.00 | 0.00 | 0.00 | 82 | 1007.0 |
| 20260830174804 | 28 | 155 | 3.2 | 16.1 | 0.00 | 0.00 | 0.00 | 82 | 1007.0 |
| 20260830174303 | 28 | 129 | 6.4 | 14.5 | 0.00 | 0.00 | 0.00 | 82 | 1007.3 |
| 20260830173804 | 27 | 130 | 8.0 | 20.9 | 0.00 | 0.00 | 0.00 | 82 | 1007.5 |
| 20260830172804 | 27 | 196 | 1.6 | 14.5 | 0.00 | 0.00 | 0.00 | 82 | 1007.8 |
| 20260830172306 | 27 | 171 | 0.0 | 8.0 | 0.00 | 0.00 | 0.00 | 82 | 1007.6 |
| 20260830171804 | 27 | 127 | 0.0 | 11.3 | 0.00 | 0.00 | 0.00 | 82 | 1007.6 |
| 20260830171304 | 26 | 102 | 1.6 | 11.3 | 0.00 | 0.00 | 0.00 | 82 | 1007.8 |
| 20260830170804 | 26 | 154 | 1.6 | 4.8 | 0.00 | 0.00 | 0.00 | 82 | 1008.1 |
| 20260830170304 | 26 | 180 | 1.6 | 12.9 | 0.00 | 0.00 | 0.00 | 82 | 1008.2 |
| 20260830165804 | 26 | 96 | 1.6 | 8.0 | 0.00 | 0.00 | 0.00 | 80 | 1008.2 |
| 20260830165306 | 26 | 109 | 1.6 | 12.9 | 0.00 | 0.00 | 0.00 | 80 | 1008.2 |
| 20260830164804 | 25 | 138 | 1.6 | 11.3 | 0.00 | 0.00 | 0.00 | 80 | 1008.3 |
| 20260830164304 | 25 | 142 | 4.8 | 11.3 | 0.00 | 0.00 | 0.00 | 80 | 1008.2 |
| 20260830163804 | 25 | 115 | 0.0 | 4.8 | 0.00 | 0.00 | 0.00 | 80 | 1008.1 |
| 20260830163304 | 25 | 120 | 1.6 | 8.0 | 0.00 | 0.00 | 0.00 | 80 | 1007.8 |
| 20260830162804 | 25 | 130 | 3.2 | 8.0 | 0.00 | 0.00 | 0.00 | 80 | 1007.7 |
| 20260830162306 | 26 | 88 | 0.0 | 4.8 | 0.00 | 0.00 | 0.00 | 80 | 1007.7 |
| 20260830161804 | 25 | 88 | 0.0 | 4.8 | 0.00 | 0.00 | 0.00 | 80 | 1007.8 |
| 20260830161304 | 25 | 130 | 1.6 | 8.0 | 0.00 | 0.00 | 0.00 | 80 | 1007.9 |
| 20260830160804 | 25 | 155 | 0.0 | 4.8 | 0.00 | 0.00 | 0.00 | 80 | 1007.7 |
| 20260830160304 | 26 | 129 | 1.6 | 11.3 | 0.00 | 0.00 | 0.00 | 80 | 1007.8 |
| 20260830155804 | 26 | 178 | 3.2 | 9.7 | 0.00 | 0.00 | 0.00 | 81 | 1007.5 |
| 20260830154804 | 25 | 72 | 3.2 | 12.9 | 0.00 | 0.00 | 0.00 | 81 | 1007.3 |
| 20260830154304 | 25 | 125 | 6.4 | 12.9 | 0.00 | 0.00 | 0.00 | 81 | 1007.3 |
| 20260830153804 | 25 | 149 | 3.2 | 9.7 | 0.00 | 0.00 | 0.00 | 81 | 1007.1 |
| 20260830153305 | 25 | 85 | 4.8 | 12.9 | 0.00 | 0.00 | 0.00 | 81 | 1007.2 |
| 20260830152804 | 25 | 75 | 4.8 | 11.3 | 0.00 | 0.00 | 0.00 | 81 | 1007.1 |
| 20260830152306 | 25 | 93 | 3.2 | 9.7 | 0.00 | 0.00 | 0.00 | 81 | 1007.1 |
| 20260830151804 | 24 | 151 | 1.6 | 3.2 | 0.00 | 0.00 | 0.00 | 81 | 1007.2 |
| 20260830151304 | 24 | 150 | 1.6 | 8.0 | 0.00 | 0.00 | 0.00 | 81 | 1007.2 |
| 20260830150803 | 23 | 97 | 1.6 | 9.7 | 0.00 | 0.00 | 0.00 | 81 | 1007.2 |
| 20260830150303 | 23 | 103 | 3.2 | 9.7 | 0.00 | 0.00 | 0.00 | 83 | 1007.1 |
| 20260830145804 | 23 | 58 | 1.6 | 4.8 | 0.00 | 0.00 | 0.00 | 92 | 1007.1 |
| 20260830145306 | 23 | 92 | 1.6 | 11.3 | 0.00 | 0.00 | 0.00 | 92 | 1007.1 |
| 20260830144803 | 23 | 77 | 4.8 | 11.3 | 0.00 | 0.00 | 0.00 | 92 | 1007.1 |
| 20260830144304 | 22 | 69 | 4.8 | 8.0 | 0.00 | 0.00 | 0.00 | 92 | 1007.2 |
| 20260830143804 | 22 | 68 | 0.0 | 4.8 | 0.00 | 0.00 | 0.00 | 92 | 1007.1 |
| 20260830143304 | 22 | 105 | 1.6 | 4.8 | 0.00 | 0.00 | 0.00 | 92 | 1007.1 |
| 20260830142803 | 22 | 173 | 1.6 | 4.8 | 0.00 | 0.00 | 0.00 | 92 | 1007.2 |
| 20260830142305 | 22 | 126 | 0.0 | 3.2 | 0.00 | 0.00 | 0.00 | 92 | 1007.4 |
| 20260830141804 | 21 | 82 | 1.6 | 4.8 | 0.00 | 0.00 | 0.00 | 92 | 1007.3 |
| 20260830141303 | 21 | 82 | 3.2 | 11.3 | 0.00 | 0.00 | 0.00 | 92 | 1007.2 |
| 20260830140803 | 21 | 80 | 3.2 | 4.8 | 0.00 | 0.00 | 0.00 | 92 | 1007.3 |
| 20260830140304 | 21 | 71 | 0.0 | 8.0 | 0.00 | 0.00 | 0.00 | 92 | 1007.3 |
| 20260830135803 | 21 | 69 | 0.0 | 4.8 | 0.00 | 0.00 | 0.00 | 100 | 1007.3 |
| 20260830135306 | 21 | 78 | 1.6 | 4.8 | 0.00 | 0.00 | 0.00 | 100 | 1007.4 |
| 20260830133803 | 21 | 75 | 4.8 | 9.7 | 0.00 | 0.00 | 0.00 | 100 | 1007.5 |
| 20260830133304 | 20 | 86 | 3.2 | 8.0 | 0.00 | 0.00 | 0.00 | 100 | 1007.5 |
| 20260830132804 | 20 | 91 | 1.6 | 9.7 | 0.00 | 0.00 | 0.00 | 100 | 1007.5 |
| 20260830132305 | 20 | 106 | 0.0 | 4.8 | 0.00 | 0.00 | 0.00 | 100 | 1007.4 |
| 20260830131804 | 20 | 109 | 0.0 | 4.8 | 0.00 | 0.00 | 0.00 | 100 | 1007.3 |
| 20260830131303 | 20 | 77 | 1.6 | 9.7 | 0.00 | 0.08 | 0.00 | 100 | 1007.3 |
| 20260830130803 | 20 | 96 | 1.6 | 9.7 | 0.00 | 0.08 | 0.00 | 100 | 1007.2 |
| 20260830130304 | 20 | 129 | 1.6 | 4.8 | 0.00 | 0.10 | 0.00 | 100 | 1007.2 |
| 20260830125803 | 20 | 102 | 4.8 | 8.0 | 0.00 | 0.10 | 0.00 | 100 | 1007.0 |
| 20260830125306 | 20 | 153 | 3.2 | 9.7 | 0.00 | 0.10 | 0.00 | 100 | 1007.2 |
| 20260830124803 | 20 | 204 | 0.0 | 0.0 | 0.00 | 0.10 | 0.00 | 100 | 1007.3 |
| 20260830124304 | 19 | 0 | 0.0 | 3.2 | 0.00 | 0.10 | 0.00 | 100 | 1007.5 |
| 20260830123804 | 19 | 0 | 0.0 | 0.0 | 0.00 | 0.10 | 0.00 | 100 | 1007.5 |
| 20260830123303 | 19 | 0 | 0.0 | 3.2 | 0.00 | 0.13 | 0.00 | 100 | 1007.3 |
| 20260830122306 | 19 | 0 | 0.0 | 0.0 | 0.00 | 0.18 | 0.00 | 100 | 1007.3 |
| 20260830121804 | 19 | 0 | 0.0 | 0.0 | 0.00 | 0.18 | 0.00 | 100 | 1007.4 |
| 20260830121304 | 19 | 0 | 0.0 | 0.0 | 0.00 | 0.23 | 0.00 | 100 | 1007.3 |
| 20260830120804 | 18 | 0 | 0.0 | 0.0 | 0.00 | 0.25 | 0.00 | 100 | 1007.3 |
| 20260830115803 | 18 | 0 | 0.0 | 0.0 | 0.00 | 0.30 | 0.00 | 100 | 1007.0 |
| 20260830115306 | 18 | 0 | 0.0 | 0.0 | 0.00 | 0.33 | 0.00 | 100 | 1007.1 |
| 20260830114303 | 18 | 0 | 0.0 | 0.0 | 0.00 | 0.36 | 0.00 | 100 | 1007.0 |
| 20260830113804 | 18 | 0 | 0.0 | 0.0 | 0.00 | 0.38 | 0.00 | 100 | 1006.9 |
| 20260830113304 | 18 | 0 | 0.0 | 0.0 | 0.00 | 0.41 | 0.00 | 100 | 1006.9 |
| 20260830112804 | 18 | 0 | 0.0 | 1.6 | 0.00 | 0.43 | 0.00 | 100 | 1006.9 |
| 20260830112306 | 18 | 0 | 0.0 | 0.0 | 0.00 | 0.46 | 0.00 | 100 | 1006.9 |
| 20260830111803 | 18 | 0 | 0.0 | 0.0 | 0.00 | 0.48 | 0.00 | 100 | 1006.9 |
| 20260830110804 | 18 | 0 | 0.0 | 0.0 | 0.00 | 0.51 | 0.00 | 100 | 1007.0 |
| 20260830110303 | 18 | 0 | 0.0 | 1.6 | 0.00 | 0.53 | 0.00 | 100 | 1007.0 |
| 20260830105803 | 18 | 0 | 0.0 | 0.0 | 0.00 | 0.56 | 0.00 | 100 | 1006.8 |
| 20260830105305 | 18 | 0 | 0.0 | 0.0 | 0.00 | 0.58 | 0.00 | 100 | 1006.9 |
| 20260830104804 | 18 | 0 | 0.0 | 0.0 | 0.00 | 0.61 | 0.00 | 100 | 1007.2 |
| 20260830104303 | 18 | 0 | 0.0 | 0.0 | 0.00 | 0.66 | 0.00 | 100 | 1007.5 |
| 20260830102803 | 18 | 0 | 0.0 | 0.0 | 0.00 | 0.74 | 0.00 | 100 | 1007.4 |
| 20260830102306 | 18 | 0 | 0.0 | 0.0 | 0.00 | 0.74 | 0.00 | 100 | 1007.3 |
| 20260830101804 | 18 | 0 | 0.0 | 0.0 | 0.00 | 0.76 | 0.00 | 100 | 1007.2 |
| 20260830100304 | 18 | 0 | 0.0 | 0.0 | 0.00 | 0.81 | 0.00 | 100 | 1007.1 |
| 20260830095804 | 19 | 0 | 0.0 | 0.0 | 0.00 | 0.81 | 0.00 | 100 | 1007.2 |
| 20260830095306 | 19 | 0 | 0.0 | 0.0 | 0.00 | 0.84 | 0.00 | 100 | 1007.2 |
| 20260830094804 | 19 | 0 | 0.0 | 0.0 | 0.00 | 0.84 | 0.00 | 100 | 1007.2 |
| 20260830094303 | 19 | 0 | 0.0 | 0.0 | 0.00 | 0.84 | 0.00 | 100 | 1006.9 |
| 20260830093804 | 19 | 0 | 1.6 | 4.8 | 0.00 | 0.84 | 0.00 | 100 | 1006.9 |
| 20260830092804 | 19 | 0 | 0.0 | 0.0 | 0.00 | 0.84 | 0.00 | 100 | 1007.0 |
| 20260830092305 | 19 | 0 | 0.0 | 0.0 | 0.00 | 0.84 | 0.00 | 100 | 1007.2 |
| 20260830091804 | 19 | 0 | 0.0 | 0.0 | 0.00 | 0.84 | 0.00 | 100 | 1007.2 |
| 20260830091304 | 19 | 0 | 0.0 | 0.0 | 0.00 | 0.84 | 0.00 | 100 | 1007.1 |
| 20260830090803 | 19 | 0 | 0.0 | 0.0 | 0.00 | 0.84 | 0.00 | 100 | 1007.1 |
| 20260830090303 | 19 | 0 | 0.0 | 0.0 | 0.00 | 0.84 | 0.00 | 100 | 1007.1 |
| 20260830085803 | 19 | 0 | 0.0 | 0.0 | 0.00 | 0.84 | 0.00 | 100 | 1007.0 |
| 20260830084804 | 19 | 0 | 0.0 | 0.0 | 0.00 | 0.84 | 0.00 | 100 | 1007.1 |
| 20260830084304 | 19 | 0 | 0.0 | 0.0 | 0.00 | 0.84 | 0.00 | 100 | 1007.1 |
| 20260830083803 | 19 | 0 | 0.0 | 0.0 | 0.00 | 0.84 | 0.00 | 100 | 1007.2 |
| 20260830083304 | 19 | 0 | 0.0 | 0.0 | 0.00 | 0.84 | 0.00 | 100 | 1007.2 |
| 20260830082804 | 19 | 0 | 0.0 | 1.6 | 0.00 | 0.84 | 0.00 | 100 | 1007.2 |
| 20260830082306 | 19 | 0 | 0.0 | 0.0 | 0.00 | 0.84 | 0.00 | 100 | 1007.3 |
| 20260830081804 | 19 | 0 | 0.0 | 0.0 | 0.00 | 0.84 | 0.00 | 100 | 1007.3 |
| 20260830081304 | 19 | 0 | 0.0 | 0.0 | 0.00 | 0.86 | 0.00 | 100 | 1007.3 |
| 20260830080803 | 19 | 0 | 0.0 | 1.6 | 0.00 | 0.86 | 0.00 | 100 | 1007.4 |
| 20260830080303 | 19 | 0 | 0.0 | 1.6 | 0.00 | 0.86 | 0.00 | 100 | 1007.4 |
| 20260830075803 | 19 | 0 | 0.0 | 3.2 | 0.00 | 0.86 | 0.00 | 100 | 1007.5 |
| 20260830075306 | 19 | 0 | 0.0 | 0.0 | 0.00 | 0.86 | 0.00 | 100 | 1007.4 |
| 20260830074803 | 19 | 0 | 0.0 | 0.0 | 0.00 | 0.86 | 0.00 | 100 | 1007.4 |
| 20260830074303 | 19 | 0 | 0.0 | 0.0 | 0.00 | 0.86 | 0.00 | 100 | 1007.5 |
| 20260830073804 | 19 | 0 | 0.0 | 0.0 | 0.00 | 0.86 | 0.00 | 100 | 1007.5 |
| 20260830073303 | 19 | 0 | 0.0 | 0.0 | 0.00 | 0.86 | 0.00 | 100 | 1007.4 |
| 20260830072803 | 19 | 0 | 0.0 | 0.0 | 0.00 | 0.86 | 0.00 | 100 | 1007.5 |
| 20260830072306 | 20 | 0 | 0.0 | 0.0 | 0.00 | 0.86 | 0.00 | 100 | 1007.5 |
| 20260830071803 | 20 | 0 | 0.0 | 0.0 | 0.00 | 0.86 | 0.00 | 100 | 1007.6 |
| 20260830071304 | 20 | 0 | 0.0 | 0.0 | 0.00 | 0.86 | 0.00 | 100 | 1007.7 |
| 20260830070303 | 20 | 0 | 0.0 | 0.0 | 0.00 | 0.86 | 0.00 | 100 | 1007.7 |
| 20260830065804 | 20 | 0 | 0.0 | 0.0 | 0.00 | 0.86 | 0.00 | 100 | 1007.7 |
| 20260830065306 | 20 | 0 | 0.0 | 0.0 | 0.00 | 0.86 | 0.00 | 100 | 1007.7 |
| 20260830064804 | 20 | 0 | 0.0 | 1.6 | 0.00 | 0.86 | 0.00 | 100 | 1007.7 |
| 20260830064304 | 20 | 0 | 0.0 | 0.0 | 0.00 | 0.86 | 0.00 | 100 | 1007.8 |
| 20260830063803 | 20 | 0 | 0.0 | 1.6 | 0.00 | 0.86 | 0.00 | 100 | 1007.9 |
| 20260830062804 | 20 | 0 | 0.0 | 3.2 | 0.00 | 0.86 | 0.00 | 100 | 1008.1 |
| 20260830062305 | 20 | 0 | 0.0 | 0.0 | 0.00 | 0.86 | 0.00 | 100 | 1008.1 |
| 20260830061804 | 20 | 0 | 0.0 | 0.0 | 0.00 | 0.86 | 0.00 | 100 | 1008.2 |
| 20260830061304 | 20 | 0 | 0.0 | 0.0 | 0.00 | 0.86 | 0.00 | 100 | 1008.3 |
| 20260830060804 | 20 | 0 | 0.0 | 0.0 | 0.00 | 0.86 | 0.00 | 100 | 1008.3 |
| 20260830060304 | 20 | 0 | 0.0 | 0.0 | 0.00 | 0.86 | 0.00 | 100 | 1008.4 |
| 20260830055804 | 20 | 158 | 0.0 | 1.6 | 0.00 | 0.86 | 0.00 | 100 | 1008.4 |
| 20260830054803 | 20 | 162 | 0.0 | 1.6 | 0.00 | 0.86 | 0.00 | 100 | 1008.2 |
| 20260830054304 | 20 | 163 | 0.0 | 1.6 | 0.00 | 0.86 | 0.00 | 100 | 1008.4 |
| 20260830053803 | 20 | 163 | 0.0 | 3.2 | 0.00 | 0.86 | 0.00 | 100 | 1008.4 |
| 20260830053303 | 20 | 144 | 0.0 | 1.6 | 0.00 | 0.86 | 0.00 | 100 | 1008.4 |
| 20260830052804 | 20 | 143 | 0.0 | 4.8 | 0.00 | 0.86 | 0.00 | 100 | 1008.3 |
| 20260830050812 | 21 | 141 | 0.0 | 0.0 | 0.00 | 0.86 | 0.00 | 100 | 1008.5 |
| 20260830050304 | 21 | 119 | 0.0 | 1.6 | 0.00 | 0.86 | 0.00 | 100 | 1008.6 |
| 20260830045804 | 21 | 115 | 0.0 | 1.6 | 0.00 | 0.86 | 0.86 | 98 | 1008.8 |
| 20260830045306 | 21 | 77 | 1.6 | 4.8 | 0.00 | 0.86 | 0.86 | 98 | 1008.8 |
| 20260830044804 | 21 | 119 | 0.0 | 4.8 | 0.00 | 0.86 | 0.86 | 98 | 1008.6 |
| 20260830044303 | 21 | 125 | 0.0 | 4.8 | 0.00 | 0.86 | 0.86 | 98 | 1008.6 |
| 20260830043304 | 21 | 175 | 0.0 | 3.2 | 0.00 | 0.86 | 0.86 | 98 | 1008.6 |
| 20260830042804 | 21 | 178 | 0.0 | 0.0 | 0.00 | 0.86 | 0.86 | 98 | 1008.8 |
| 20260830041804 | 21 | 196 | 0.0 | 1.6 | 0.00 | 0.86 | 0.86 | 98 | 1009.0 |
| 20260830040804 | 21 | 193 | 0.0 | 1.6 | 0.00 | 0.86 | 0.86 | 98 | 1009.2 |
| 20260830040303 | 21 | 182 | 0.0 | 0.0 | 0.00 | 0.86 | 0.86 | 98 | 1009.1 |
| 20260830035804 | 21 | 175 | 0.0 | 1.6 | 0.00 | 0.86 | 0.86 | 94 | 1009.1 |
| 20260830035306 | 21 | 226 | 0.0 | 0.0 | 0.00 | 0.86 | 0.86 | 94 | 1009.0 |
| 20260830034804 | 21 | 226 | 0.0 | 0.0 | 0.00 | 0.86 | 0.86 | 94 | 1008.9 |
| 20260830034304 | 21 | 178 | 0.0 | 1.6 | 0.00 | 0.86 | 0.86 | 94 | 1008.9 |
| 20260830033804 | 21 | 176 | 0.0 | 3.2 | 0.00 | 0.86 | 0.86 | 94 | 1008.9 |
| 20260830033304 | 21 | 175 | 0.0 | 1.6 | 0.00 | 0.86 | 0.86 | 94 | 1009.0 |
| 20260830032804 | 21 | 175 | 0.0 | 1.6 | 0.00 | 0.86 | 0.86 | 94 | 1009.0 |
| 20260830032306 | 21 | 175 | 0.0 | 3.2 | 0.00 | 0.86 | 0.86 | 94 | 1008.9 |
| 20260830031804 | 21 | 175 | 0.0 | 0.0 | 0.00 | 0.86 | 0.86 | 94 | 1009.0 |
| 20260830031304 | 21 | 175 | 0.0 | 1.6 | 0.00 | 0.86 | 0.86 | 94 | 1009.0 |
| 20260830030803 | 21 | 175 | 0.0 | 0.0 | 0.00 | 0.86 | 0.86 | 94 | 1009.0 |
| 20260830030304 | 21 | 176 | 0.0 | 0.0 | 0.00 | 0.86 | 0.86 | 94 | 1009.0 |
| 20260830025804 | 21 | 176 | 0.0 | 0.0 | 0.00 | 0.86 | 0.86 | 95 | 1009.0 |
| 20260830025306 | 21 | 0 | 0.0 | 4.8 | 0.00 | 0.86 | 0.86 | 95 | 1008.9 |
| 20260830024804 | 21 | 0 | 0.0 | 0.0 | 0.00 | 0.86 | 0.86 | 95 | 1008.9 |
| 20260830024303 | 21 | 355 | 0.0 | 0.0 | 0.00 | 0.86 | 0.86 | 95 | 1008.9 |
| 20260830023804 | 21 | 186 | 0.0 | 0.0 | 0.00 | 0.86 | 0.86 | 95 | 1008.9 |
| 20260830022803 | 21 | 292 | 0.0 | 0.0 | 0.00 | 0.86 | 0.86 | 95 | 1009.0 |
| 20260830022306 | 21 | 237 | 0.0 | 0.0 | 0.00 | 0.86 | 0.86 | 95 | 1009.0 |